Simultaneous Nadir Overpasses (SNOs) Predictions

Prediction of SNOs between NPP and TERRA Satellite Orbit:

Table of predicted SNOs for the next 14.0 days since TLE Epoch: 3/26/2022
Index Date (NPP) Time (NPP) Lat,Lon (NPP) SZA (NPP ) Date (TERRA) Time (TERRA) Lat,Lon (TERRA) SZA (TERRA ) Distance(km) Time Diff (sec)
1 03/26/2022 20:10:54 -70.03, 53.74 112.44 03/26/2022 20:12:03 -69.91, 55.27 112.61 59.86 69
2 03/26/2022 21:01:27 69.33,-137.92 66.81 03/26/2022 21:01:39 69.31,-137.90 66.79 2.03 12
3 03/26/2022 21:52:08 -69.19, 29.59 113.35 03/26/2022 21:51:09 -69.19, 29.58 113.34 0.22 59
4 03/29/2022 12:27:37 -69.41, 170.43 114.15 03/29/2022 12:28:36 -69.38, 170.43 114.19 3.40 59
5 03/29/2022 13:18:21 69.28, -22.09 65.72 03/29/2022 13:18:03 69.26, -22.07 65.70 2.20 18
6 03/29/2022 14:08:52 -68.61, 146.15 114.99 03/29/2022 14:07:42 -68.65, 144.79 114.91 55.29 70
7 04/01/2022 04:44:31 -69.37, -73.74 115.23 04/01/2022 04:44:59 -69.38, -73.69 115.23 2.49 28
8 04/01/2022 05:35:15 69.25, 93.74 64.63 04/01/2022 05:34:26 69.26, 93.81 64.65 3.32 49
9 04/03/2022 20:10:43 69.42,-125.37 63.81 04/03/2022 20:11:53 69.42,-125.38 63.80 0.69 70
10 04/03/2022 21:01:25 -69.33, 42.08 116.30 04/03/2022 21:01:23 -69.31, 42.11 116.32 2.62 2
11 04/03/2022 21:52:05 69.00,-150.15 63.35 04/03/2022 21:50:52 69.08,-150.54 63.44 17.97 73
12 04/06/2022 12:27:36 69.39, -9.55 62.76 04/06/2022 12:28:15 69.39, -9.53 62.75 0.93 39
13 04/06/2022 13:18:18 -69.30, 157.89 117.35 04/06/2022 13:17:45 -69.29, 157.97 117.37 3.31 33



Historial Predications of SNOs between NPP and TERRA
